Dewpoint
-19 -19 -22 -24 -23 -22 -24 -25 -26 -24 -21 -19 -16 -16 -16 -15 -15 -15 -14 -7 -6 -6 -6 -5 -5 -5 -4
-25 -23 -24 -24 -25 -26 -27 -26 -26 -21 -19 -16 -16 -15 -15 -15 -15 -14 -15 -15 -13 -7 -7 -6 -6 -5 -5
-26 -26 -26 -25 -27 -28 -27 -25 -22 -19 -17 -16 -15 -15 -15 -15 -15 -14 -14 -15 -14 -7 -7 -6 -6 -5 -6
-27 -25 -26 -27 -27 -26 -28 -26 -25 -20 -17 -17 -16 -15 -15 -15 -14 -13 -14 -13 -8 -7 -7 -7 -6 -6 -6
-27 -27 -26 -25 -24 -22 -22 -25 -26 -22 -20 -20 -18 -17 -16 -14 -14 -14 -14 -10 -8 -8 -7 -7 -7 -7 -6
-26 -26 -23 -23 -23 -22 -21 -20 -21 -20 -17 -23 -17 -17 -16 -15 -14 -15 -14 -10 -8 -7 -8 -8 -7 -7 -7
-24 -23 -23 -21 -21 -21 -19 -18 -17 -18 -14 -16 -16 -15 -15 -15 -14 -14 -14 -10 -8 -8 -9 -8 -8 -8 -7
-22 -21 -21 -19 -17 -17 -16 -15 -17 -18 -14 -14 -14 -14 -15 -14 -15 -14 -14 -12 -13 -14 -11 -9 -8 -8 -8
-20 -20 -19 -17 -15 -16 -15 -15 -15 -15 -15 -12 -13 -13 -13 -14 -14 -13 -14 -14 -16 -16 -15 -11 -9 -9 -8
-18 -17 -17 -17 -16 -15 -14 -14 -13 -12 -13 -12 -11 -12 -12 -12 -13 -14 -14 -15 -16 -15 -15 -14 -10 -9 -10
-16 -16 -16 -16 -16 -15 -15 -13 -13 -13 -13 -12 -12 -12 -12 -12 -13 -14 -14 -16 -15 -15 -14 -13 -13 -13 -14
-16 -17 -17 -17 -17 -15 -15 -14 -13 -13 -13 -12 -12 -13 -13 -12 -13 -15 -14 -15 -14 -14 -14 -15 -14 -14 -13
-16 -17 -17 -18 -18 -16 -16 -14 -14 -14 -13 -13 -13 -13 -13 -13 -13 -14 -14 -15 -14 -14 -14 -14 -15 -15 -14
-14 -15 -16 -18 -19 -16 -14 -13 -13 -14 -14 -13 -13 -13 -13 -13 -13 -13 -14 -13 -14 -14 -13 -14 -14 -14 -14
-13 -14 -16 -16 -15 -14 -13 -13 -13 -13 -14 -14 -14 -13 -13 -13 -13 -14 -14 -14 -14 -13 -13 -13 -14 -14 -14
-13 -13 -15 -15 -14 -14 -14 -13 -13 -13 -13 -13 -14 -13 -14 -15 -14 -13 -14 -13 -13 -13 -14 -14 -14 -15 -14
-13 -13 -14 -15 -15 -15 -14 -13 -13 -13 -13 -13 -13 -12 -12 -13 -14 -14 -13 -13 -14 -14 -14 -14 -13 -15 -15
Wind_Speed
10 11 13 14 14 15 17 20 21 21 21 21 23 24 25 26 26 24 24 21 21 20 20 20 21 23 22
5 7 11 13 14 16 18 21 21 20 20 21 21 22 25 26 24 24 24 24 24 21 19 21 21 20 20
5 9 11 14 15 17 18 19 19 20 18 19 20 23 25 26 24 23 23 25 25 21 21 20 18 19 20
8 10 12 15 18 20 19 19 20 21 19 21 21 23 24 24 23 23 24 24 21 18 17 18 17 19 21
10 12 14 16 19 22 23 24 22 22 21 24 24 25 24 23 25 25 25 22 12 14 17 18 19 21 21
12 14 15 18 20 23 25 27 29 25 31 24 26 26 24 24 26 25 24 17 9 16 22 21 21 20 22
14 15 17 20 23 24 25 26 27 30 32 32 27 24 24 24 25 21 17 10 13 24 29 22 22 23 23
16 17 19 21 23 24 26 28 28 28 26 34 27 29 30 24 19 9 10 16 26 29 26 23 24 24 22
17 19 20 20 21 24 25 28 32 31 28 24 31 36 34 23 11 11 27 22 24 25 25 25 22 22 22
18 19 20 21 21 22 24 25 26 29 21 29 30 27 24 22 15 30 28 26 28 26 24 23 21 20 24
20 21 22 21 21 22 22 21 23 26 28 23 27 28 25 33 35 34 33 32 29 26 15 17 22 22 28
21 22 22 22 21 21 22 20 20 25 26 22 26 26 28 33 38 37 35 32 29 18 24 26 24 24 23
23 23 23 23 23 23 23 22 22 22 21 20 23 23 24 29 36 38 37 33 24 29 25 27 27 24 26
24 24 25 25 24 23 23 23 27 25 18 21 22 21 24 27 31 36 31 32 32 28 29 29 26 23 24
25 25 25 25 24 22 22 24 26 28 28 21 19 21 23 27 28 26 27 29 29 32 33 35 32 29 26
24 24 24 24 24 24 25 26 27 27 28 25 24 26 26 27 25 28 29 30 32 32 32 36 37 30 28
24 24 24 25 26 27 27 27 28 28 26 25 25 27 31 31 32 28 31 32 32 35 33 32 34 33 30
Wind_Direction
234 259 282 295 305 311 315 315 316 318 320 319 316 313 314 317 317 315 310 309 306 305 305 305 306 307 303
253 274 297 304 316 318 315 315 316 318 319 317 315 317 317 317 319 313 309 310 308 306 308 305 304 302 306
313 312 311 318 317 315 315 316 317 320 319 318 321 321 321 318 317 309 309 308 305 307 304 302 297 301 301
338 324 323 320 319 321 321 323 321 323 324 321 326 323 322 322 319 310 309 304 306 307 306 305 297 302 299
340 328 327 324 328 330 329 328 326 321 323 321 327 326 325 324 319 314 309 307 308 315 315 303 296 297 299
339 335 329 328 329 327 329 330 329 331 323 324 325 322 321 323 317 314 306 304 286 315 321 307 303 298 298
342 330 330 326 326 326 326 324 322 326 322 321 325 318 321 324 317 315 313 307 295 301 312 308 300 301 300
336 332 328 326 323 323 322 317 318 318 322 318 323 319 322 326 315 312 328 306 303 304 305 304 302 300 299
333 329 324 320 317 318 319 319 321 321 326 316 321 319 322 330 304 287 320 316 317 317 305 300 302 302 290
329 324 324 324 319 319 321 321 322 325 329 318 320 324 323 327 305 315 318 323 325 323 314 304 305 303 294
329 328 325 320 319 321 321 320 323 319 326 315 308 311 305 307 311 316 318 325 326 324 317 321 311 306 301
330 327 323 322 322 324 319 315 313 319 322 315 305 310 306 303 303 312 315 320 326 324 321 317 313 308 302
330 329 327 326 324 321 317 316 312 320 318 321 315 312 302 300 301 307 313 320 322 323 321 319 317 315 312
331 330 326 322 322 324 324 323 319 326 326 323 320 312 307 304 304 306 315 310 317 322 325 325 324 322 318
327 324 321 319 320 325 326 325 323 326 326 327 319 314 310 309 309 315 316 316 321 324 325 323 323 324 320
322 322 318 315 317 325 327 323 321 323 323 326 327 325 320 312 321 324 323 322 323 323 325 320 315 320 321
322 320 317 317 317 320 323 322 320 321 321 323 327 329 323 318 316 319 318 322 321 315 316 319 313 316 318
Height
1524 1524 1525 1525 1522 1520 1518 1516 1513 1510 1507 1504 1501 1500 1496 1491 1488 1486 1484 1481 1479 1478 1476 1475 1471 1469 1466
1522 1522 1521 1520 1517 1516 1515 1513 1510 1505 1502 1500 1497 1495 1491 1486 1483 1480 1477 1474 1472 1471 1469 1468 1465 1463 1460
1519 1518 1518 1515 1513 1513 1511 1509 1505 1501 1499 1496 1493 1490 1485 1481 1478 1475 1472 1470 1467 1466 1464 1461 1459 1458 1455
1514 1515 1513 1511 1510 1508 1507 1504 1500 1497 1494 1492 1488 1484 1480 1476 1473 1469 1466 1464 1462 1460 1457 1455 1454 1451 1449
1511 1512 1509 1508 1505 1502 1500 1497 1496 1492 1489 1486 1483 1479 1475 1471 1468 1464 1460 1458 1457 1455 1452 1450 1448 1446 1444
1509 1506 1505 1503 1501 1499 1495 1492 1489 1487 1480 1481 1478 1474 1471 1468 1463 1458 1455 1452 1453 1451 1448 1445 1443 1440 1436
1503 1504 1501 1500 1497 1494 1492 1489 1485 1481 1475 1471 1472 1468 1466 1463 1459 1454 1450 1449 1450 1446 1442 1439 1436 1433 1429
1502 1500 1498 1496 1494 1489 1487 1484 1480 1478 1473 1463 1463 1460 1459 1458 1454 1450 1448 1446 1443 1439 1436 1433 1429 1425 1423
1499 1498 1496 1493 1489 1486 1483 1479 1473 1471 1467 1461 1457 1452 1451 1451 1448 1446 1445 1441 1437 1432 1428 1424 1421 1418 1414
1497 1496 1492 1489 1487 1483 1478 1475 1472 1465 1464 1459 1454 1452 1443 1440 1444 1441 1437 1435 1430 1426 1421 1416 1414 1411 1407
1494 1491 1487 1485 1482 1479 1476 1472 1469 1464 1461 1458 1452 1450 1447 1437 1432 1434 1431 1427 1424 1419 1415 1412 1409 1406 1401
1489 1486 1484 1481 1477 1474 1472 1470 1466 1462 1458 1455 1448 1445 1440 1435 1429 1426 1424 1422 1418 1413 1411 1406 1403 1400 1396
1486 1483 1479 1475 1471 1470 1468 1464 1461 1459 1454 1450 1445 1440 1437 1431 1425 1421 1417 1414 1412 1408 1404 1400 1395 1392 1387
1480 1477 1475 1471 1469 1466 1463 1460 1455 1452 1451 1445 1441 1436 1432 1429 1423 1416 1415 1409 1406 1403 1398 1393 1389 1386 1382
1477 1474 1471 1468 1465 1462 1458 1454 1450 1444 1441 1440 1437 1433 1429 1424 1417 1414 1409 1404 1401 1395 1390 1384 1382 1379 1376
1474 1469 1466 1463 1459 1456 1453 1450 1445 1441 1437 1434 1430 1426 1422 1418 1414 1408 1404 1399 1395 1390 1386 1379 1372 1372 1368
1468 1465 1461 1458 1454 1451 1448 1444 1440 1436 1434 1430 1427 1423 1416 1410 1407 1406 1399 1395 1389 1383 1380 1376 1367 1363 1360